Hourly Weather Roundup
Issued by NWS Central Illinois

Home | Current Version | Previous Version | Text Only | Print | Product List | Glossary On
Versions: 1 2 3 4 5 6 7 8 9 10 11 12 13 14 15 16 17 18 19 20 21 22 23 24 25 26 27 28 29 30 31 32 33 34 35 36 37 38 39 40 41 42 43 44 45 46 47 48 49 50
000
NZUS43 KILX 230810
HWRILX

AREA WEATHER ROUNDUP
NATIONAL WEATHER SERVICE, LINCOLN IL
300 AM CDT WED APR 23 2014


CITY           SKY/WX    TMP DP  RH WIND       PRES   REMARKS
BLOOMINGTON    CLEAR     33  27  79 NE6       30.10S WCI  27
CHAMPAIGN      CLEAR     39  28  64 NE12      30.08R WCI  32
DANVILLE       CLEAR     34  28  79 N5        30.06R WCI  30
DECATUR        CLEAR     37  30  75 E7        30.08S WCI  32
FLORA          NOT AVBL
GALESBURG      CLEAR     39  32  76 E8        30.09R WCI  34
JACKSONVILLE   CLEAR     43  33  69 E13       30.08R
LACON          CLEAR     33  29  86 CALM      30.11R
LAWRENCEVILLE  CLEAR     49  34  56 NE13      30.05R
LITCHFIELD     PTCLDY    44  36  71 NE12      30.05R
$$


CITY           SKY/WX    TMP DP  RH WIND       PRES   REMARKS
LINCOLN        CLEAR     40  31  69 E6        30.10R
MACOMB         CLEAR     39  32  76 E8        30.10R WCI  33
MATTOON        CLEAR     41  31  67 NE13      30.06S WCI  34
MT CARMEL AP   CLEAR     50  37  62 NE12      30.04R
OLNEY-NOBLE AP CLEAR     46  36  66 NE8       30.04R
PARIS          CLEAR     41  30  65 NE6       30.08S
PEORIA         PTCLDY    41  28  60 E9        30.10R
PONTIAC        CLEAR     36  30  80 CALM      30.10S
RANTOUL        CLEAR     40  29  64 CALM      30.09S
ROBINSON       CLEAR     47  37  70 NE9       30.07R
SPRINGFIELD    PTCLDY    43  31  62 E10       30.08R
TAYLORVILLE    PTCLDY    43  32  65 E13G22    30.08R
$$

...REGIONAL REPORTS...


CITY           SKY/WX    TMP DP  RH WIND       PRES   REMARKS
CHICAGO O`HARE CLEAR     36  26  67 N8        30.11S WCI  30
KANKAKEE       CLEAR     37  30  77 N3        30.11R
MOLINE         PTCLDY    38  30  73 E8        30.09S WCI  32
MOUNT VERNON   CLEAR     41  30  65 N3        30.03R
PITTSFIELD     PTCLDY    49  30  47 NE5       30.07R
QUINCY         PTCLDY    44  33  65 NE7       30.05S
ROCKFORD       CLEAR     35  27  72 E3        30.14R
$$


CITY           SKY/WX    TMP DP  RH WIND       PRES   REMARKS
BURLINGTON     CLEAR     48  30  49 E13       30.06R
CEDAR RAPIDS   PTCLDY    42  30  62 E9        30.06S
DES MOINES     PTCLDY    53  32  44 E10       30.03F
KIRKSVILLE     CLEAR     46  32  58 E8        30.04F
OTTUMWA        MOCLDY    49  33  54 E8        30.04F
ST LOUIS       PTCLDY    53  33  46 NE6       30.04S
$$


CITY           SKY/WX    TMP DP  RH WIND       PRES   REMARKS
TERRE HAUTE    CLEAR     42  32  67 NE7       30.06R
EVANSVILLE     CLEAR     49  38  65 NE7       30.02R
INDIANAPOLIS   CLEAR     39  27  62 N10       30.04R WCI  32
LAFAYETTE      CLEAR     36  27  69 N6        30.07R WCI  31
MADISON        CLEAR     34  28  79 CALM      30.13S
MILWAUKEE      CLEAR     34  27  75 N6        30.14R WCI  29
$$




USA.gov is the U.S. government's official web portal to all federal, state and local government web resources and services.